Location: NJAA Observatory
(40.6819°N, 74.8979°W)
Time: 02:43:06
(UTC-05:00)

Daily predictions for brighter satellites

Satellite Brightness Start Highest point End
(mag) Time Altitude Azimuth Time Altitude Azimuth Time Altitude Azimuth
CENTAUR R/B 4.3 03:54:56 22° NNE 03:54:56 22° NNE 03:57:29 10° NNE
Lacrosse 5 4.0 03:54:26 24° ENE 03:54:26 24° ENE 03:56:39 10° ENE
Cosmos 2184 Rocket 4.4 04:03:59 10° SSE 04:09:57 57° E 04:16:02 10° NNE
Okean 1 Rocket 4.0 04:37:56 10° SSE 04:42:07 46° E 04:46:19 10° NNE
Meteor 1-11 Rocket 4.5 04:40:55 10° S 04:46:34 53° E 04:52:06 10° NNE
COSMO-SKYMED 1 3.6 04:46:06 10° SE 04:50:12 43° ENE 04:52:20 25° NNE
Meteor 1-13 Rocket 4.4 04:51:50 15° N 04:56:51 78° E 05:02:46 10° SSE
NOAA 6 4.2 04:52:06 10° NNE 04:57:15 73° ESE 05:02:22 10° S
Cosmos 2369 Rocket 2.4 05:00:13 27° NNW 05:03:26 68° ENE 05:09:05 10° SSE
Meteor 2-4 Rocket 4.4 04:59:32 10° N 05:04:57 53° ENE 05:10:30 10° SSE
Abrixas rocket 3.9 05:08:19 28° NE 05:08:19 28° NE 05:10:12 10° NE
Cosmos 1603 3.9 05:07:19 48° NW 05:07:19 48° NW 05:12:26 10° NNE
Okean 1-7 Rocket 3.7 05:06:39 27° N 05:08:59 73° E 05:13:21 10° SSE
Cosmos 44 Rocket 3.5 05:17:38 47° WNW 05:18:12 50° NW 05:23:11 10° NNE
Nadezhda 3 Rocket 3.9 05:12:31 10° N 05:18:55 84° W 05:25:17 10° S
SKYMED 3 4.4 05:15:50 10° SSE 05:20:10 86° WSW 05:22:43 25° NNW
Cosmos 2056 Rocket 3.9 05:25:19 38° W 05:25:39 38° WSW 05:30:21 10° S
Meteor 2-13 Rocket 4.3 05:20:27 10° SSW 05:26:36 72° W 05:32:45 10° N
USA 215 3.2 05:21:57 10° NE 05:28:31 88° NW 05:35:03 10° SW
Cosmos 1943 3.1 05:23:16 10° SSW 05:28:51 70° WNW 05:34:30 10° NNE
Okean 2 4.4 05:26:59 10° N 05:31:03 47° E 05:35:03 10° SSE
Cosmos 962 Rocket 4.4 05:26:35 10° S 05:32:45 81° W 05:39:04 10° N
DELTA 2 R/B(2) 4.0 05:33:21 60° SSW 05:33:31 62° S 05:35:22 10° E
Lacrosse 5 2.4 05:33:41 33° WNW 05:34:53 38° NW 05:39:39 10° NNE
Ariane Rocket 2.9 05:30:59 10° NNE 05:36:04 88° E 05:41:08 10° SSW
Cosmos 1900 4.4 05:33:16 20° NNW 05:36:38 76° ENE 05:41:33 10° SE
Cosmos 1536 2.7 05:32:58 10° SSW 05:36:55 62° W 05:40:55 10° N
Cosmos 1943 Rocket 2.6 05:32:29 10° NNW 05:37:57 60° ENE 05:43:22 10° SE
SKYMED 2 3.6 05:33:59 10° S 05:38:13 53° W 05:40:56 21° NNW
DMSP B5D1-3 4.5 05:37:37 10° S 05:42:44 67° WSW 05:47:53 10° NNW
CENTAUR R/B 4.2 05:42:08 15° NW 05:43:24 16° NNW 05:47:32 10° NNE
BREEZE-M DEB (TANK) 4.5 05:40:19 21° WSW 05:43:47 76° NNW 06:01:11 10° ENE
CZ-4 R/B 3.0 05:40:51 10° NNE 05:44:31 36° E 05:48:07 10° SSE
Tiangong 2 1.0 05:46:21 41° W 05:47:16 76° SSW 05:50:25 10° ESE
Cosmos 2341 Rocket 4.0 05:41:07 10° SSW 05:47:20 63° W 05:53:32 10° N
Cosmos 1025 Rocket 3.2 05:52:26 10° NNW 05:56:41 50° W 06:00:52 10° SSW
Lacrosse 5 rocket 3.9 06:00:01 10° N 06:00:50 10° NNE 06:01:40 10° NNE
YAOGAN 1 3.7 06:03:19 10° NNE 06:07:32 48° E 06:11:43 10° S
USA 129 1.7 06:05:44 10° S 06:07:49 57° WSW 06:09:11 19° NNW
Cosmos 44 4.1 06:03:42 10° WSW 06:08:31 34° NW 06:13:13 10° NNE
Meteor 2-19 Rocket 4.4 06:03:04 10° S 06:09:10 80° W 06:15:18 10° N
SMAP 3.7 06:07:29 10° NNE 06:12:06 60° E 06:16:42 10° S
Lacrosse 4 Rocket 1.5 06:08:41 10° NNW 06:12:50 75° ENE 06:16:53 10° SSE
Meteor 2-8 Rocket 4.5 06:06:54 10° NNW 06:13:00 65° W 06:19:04 10° S
IDEFIX/ARIANE 42P 3.1 06:08:20 10° NNE 06:13:30 63° ESE 06:18:38 10° S
SL-27 R/B 3.8 06:10:35 10° S 06:13:58 45° ESE 06:17:27 10° NNE
Cosmos 1452 Rocket 4.2 06:10:05 10° NW 06:14:44 34° W 06:19:26 10° SSW
Meteor 1-28 Rocket 4.0 06:11:55 10° SSW 06:15:21 32° W 06:18:50 10° NNW
NOSS 3-1 (C) 4.0 06:10:04 10° SSW 06:15:44 61° ESE 06:22:01 10° NE
Cosmos 1544 Rocket 3.7 06:17:06 10° SSW 06:21:21 52° W 06:25:40 10° N
Cosmos 1975 3.0 06:19:00 10° S 06:23:05 81° E 06:27:12 10° N
Cosmos 1340 3.2 06:21:00 10° NNW 06:24:31 37° W 06:28:01 10° SSW
Cosmos 839 Rocket 4.0 06:18:03 10° NNW 06:24:34 77° WSW 06:30:41 10° SSE
CSL-04 Rocket 4.1 06:20:57 10° N 06:26:09 42° WNW 06:31:17 10° SW
COSMO-SKYMED 1 4.2 06:23:51 10° SW 06:26:34 16° W 06:29:15 10° NW
MSX 4.4 06:30:22 10° NNE 06:36:05 65° ESE 06:41:46 10° S
Helios 1B rocket 2.4 06:34:01 10° S 06:38:08 69° WSW 06:42:18 10° NNW
MOS 1 4.3 06:32:45 10° NNE 06:38:26 85° WNW 06:44:05 10° SSW
SL-8 Rocket 4.4 06:33:05 10° SW 06:38:55 41° WNW 06:44:46 10° N
Cosmos 158 Rocket 4.1 06:35:15 10° SSW 06:40:29 61° WNW 06:45:50 10° NNE
Abrixas rocket 3.8 06:41:39 10° WNW 06:44:21 22° N 06:47:04 10° NE
PAYLOAD A 4.5 06:39:25 10° N 06:44:32 45° WNW 06:49:40 10° SW
COSMOS 2406 3.2 06:41:10 10° SSW 06:46:49 75° WNW 06:52:31 10° NNE
USA 229 DEB 4.2 06:41:45 10° WSW 06:48:07 39° NW 06:54:36 10° NNE
USA 229 4.2 06:41:50 10° WSW 06:48:13 39° NW 06:54:42 10° NNE
